[[[{"header":{"parameterUnit":"kt","parameterCategory":2,"dx":1,"dy":1,"la1":30.253999710083008,"la2":30.299108505249023,"lo1":-89.0895004272461,"lo2":-89.04439544677734,"nx":28,"ny":28,"refTime":"2022-09-29T21:00:00:Z","depth":0,"parameterNumber":1,"parameterNumberName":"U-component_of_WINDS"},"data":[-1.3279,-1.3323,-1.3304,-1.3346,-1.3336,-1.3362,-1.3365,-1.3367,-1.3364,-1.3393,-1.3407,-1.3392,-1.3382,-1.3395,-1.3409,-1.3402,-1.3411,-1.344,-1.3428,-1.3311,-1.3294,-1.3278,-1.3266,-1.3442,-1.3442,-1.3553,-1.3554,-1.3554,-1.3194,-1.3184,-1.3201,-1.3204,-1.3218,-1.3177,-1.3176,-1.3191,-1.3216,-1.3212,-1.3224,-1.3249,-1.3266,-1.3246,-1.326,-1.3281,-1.3264,-1.3286,-1.3286,-1.3285,-1.3159,-1.3147,-1.33,-1.33,-1.33,-1.33,-1.33,-1.33,-1.3036,-1.3063,-1.3053,-1.3071,-1.3067,-1.3069,-1.3092,-1.3074,-1.309,-1.3101,-1.3075,-1.3103,-1.3096,-1.3104,-1.3102,-1.3124,-1.3096,-1.3115,-1.312,-1.3126,-1.3136,-1.2982,-1.3125,-1.3124,-1.3124,-1.3123,-1.3123,0,-1.2914,-1.2896,-1.291,-1.2919,-1.2931,-1.2936,-1.2937,-1.2951,-1.2907,-1.2922,-1.2944,-1.2953,-1.2971,-1.299,-1.2998,-1.2992,-1.2954,-1.2948,-1.2961,-1.2976,-1.2988,-1.2984,-1.2781,-1.2944,-1.2943,-1.2942,-1.2941,-1.294,-1.2755,-1.2789,-1.2769,-1.2782,-1.2777,-1.2799,-1.2808,-1.2766,-1.2778,-1.2774,-1.2801,-1.2818,-1.283,-1.2868,-1.2848,-1.2862,-1.2844,-1.2909,-1.2846,-1.2858,-1.2848,-1.2847,-1.2851,-1.2923,-1.2925,-1.2927,-1.2928,0,-1.2667,-1.2635,-1.2681,-1.2658,-1.2653,-1.2692,-1.2673,-1.2699,-1.2678,-1.2711,-1.2716,-1.2684,-1.2706,-1.2675,-1.2694,-1.2677,-1.2742,-1.2722,-1.2743,-1.2739,-1.2795,-1.2791,-1.2979,-1.3002,-1.2817,-1.2819,-1.282,0,-1.252,-1.2566,-1.2515,-1.2544,-1.2594,-1.255,-1.2601,-1.2588,-1.2582,-1.2607,-1.2557,-1.2583,-1.2538,-1.2559,-1.2534,-1.2581,-1.2584,-1.2575,-1.2568,-1.2581,-1.2582,-1.2589,-1.2582,-1.2549,-1.2548,-1.2547,-1.2547,0,-1.2388,-1.2414,-1.246,-1.2461,-1.2443,-1.2465,-1.2459,-1.245,-1.246,-1.2467,-1.2473,-1.2485,-1.2492,-1.2502,-1.2471,-1.243,-1.2526,-1.2463,-1.2517,-1.2518,-1.2543,-1.2542,-1.2714,-1.2545,-1.2545,-1.2545,-1.2545,0,-1.2265,-1.2272,-1.2343,-1.2326,-1.2335,-1.2365,-1.2373,-1.2392,-1.2387,-1.2373,-1.2378,-1.2342,-1.2379,-1.2319,-1.237,-1.2326,-1.2336,-1.2329,-1.2333,-1.2337,-1.2271,-1.2375,-1.254,-1.2557,-1.2337,-1.2335,-1.2333,0,-1.2124,-1.2187,-1.215,-1.2219,-1.2243,-1.2185,-1.2218,-1.2215,-1.2199,-1.2219,-1.22,-1.2223,-1.2172,-1.2175,-1.2204,-1.2187,-1.2245,-1.2178,-1.221,-1.2211,-1.2215,-1.2365,-1.2399,-1.2506,-1.2311,-1.2313,-1.2315,0,-1.2011,-1.1987,-1.2002,-1.2002,-1.199,-1.2011,-1.2048,-1.2061,-1.2076,-1.2078,-1.2109,-1.2139,-1.2102,-1.2108,-1.208,-1.2112,-1.2204,-1.2068,-1.2068,-1.2096,-1.2296,-1.2328,-1.2346,-1.2179,-1.2181,-1.2184,-1.2297,0,-1.1836,-1.1863,-1.1901,-1.1902,-1.1912,-1.1953,-1.1919,-1.1934,-1.1906,-1.1888,-1.1933,-1.1924,-1.1938,-1.1949,-1.1922,-1.2005,-1.1987,-1.1947,-1.1889,-1.1986,-1.2023,-1.2038,-1.1836,-1.1834,-1.1833,-1.1832,0,0,-1.1711,-1.1749,-1.1707,-1.1742,-1.1749,-1.1688,-1.1735,-1.1735,-1.1736,-1.1742,-1.1709,-1.1751,-1.1745,-1.1804,-1.1832,-1.1837,-1.185,-1.1817,-1.194,-1.1952,-1.1963,-1.2003,-1.2019,-1.1829,-1.1828,-1.1827,-1.1827,0,-1.164,-1.1633,-1.1679,-1.1676,-1.167,-1.1649,-1.166,-1.1644,-1.1635,-1.1679,-1.163,-1.1653,-1.1689,-1.1689,-1.1694,-1.1808,-1.1772,-1.1814,-1.1888,-1.1924,-1.1939,-1.1951,-1.1993,-1.2009,-1.1823,-1.1823,-1.1823,0,-1.1525,-1.1512,-1.1531,-1.1541,-1.1538,-1.1565,-1.1494,-1.1525,-1.1545,-1.148,-1.1525,-1.1515,-1.1513,-1.1572,-1.1598,-1.1568,-1.1703,-1.1654,-1.1663,-1.1666,-1.17,-1.1717,-1.1733,-1.1531,-1.153,-1.1529,0,0,-1.1469,-1.1493,-1.1468,-1.1524,-1.1524,-1.1493,-1.1504,-1.1477,-1.1475,-1.1475,-1.1462,-1.1463,-1.1483,-1.1497,-1.1514,-1.1584,-1.1581,-1.1619,-1.1633,-1.1644,-1.1654,-1.1691,-1.1708,-1.1526,-1.1526,-1.1526,0,0,-1.1443,-1.1415,-1.1386,-1.1447,-1.1446,-1.1426,-1.1462,-1.1427,-1.1438,-1.143,-1.1387,-1.1386,-1.144,-1.1433,-1.1392,-1.1493,-1.1436,-1.1445,-1.1496,-1.1513,-1.1527,-1.1528,-1.1321,0,0,0,0,0,-1.1353,-1.1418,-1.1392,-1.1397,-1.1411,-1.1439,-1.1441,-1.1406,-1.1366,-1.1396,-1.1379,-1.1339,-1.1402,-1.1365,-1.1372,-1.1418,-1.1483,-1.149,-1.1498,-1.158,-1.1598,-1.1614,0,0,0,0,0,0,-1.1355,-1.1361,-1.139,-1.1373,-1.1376,-1.1437,-1.1361,-1.1354,-1.1362,-1.1354,-1.1343,-1.1338,-1.131,-1.136,-1.1366,-1.1411,-1.1318,-1.1486,-1.1492,-1.1498,-1.1586,-1.1601,-1.1614,0,0,0,0,0,-1.1356,-1.1361,-1.1393,-1.1372,-1.1374,-1.1344,-1.1358,-1.1351,-1.1358,-1.1333,-1.1327,-1.1331,-1.1312,-1.1315,-1.1363,-1.1409,-1.1314,-1.1316,-1.149,-1.1495,-1.15,-1.1594,0,0,0,0,0,0,-1.1357,-1.1355,-1.1392,-1.1392,-1.1345,-1.1339,-1.1337,-1.135,-1.1335,-1.133,-1.1318,-1.1312,-1.1315,-1.1317,-1.1319,-1.141,-1.131,-1.1313,-1.1314,-1.1494,-1.1498,-1.1501,0,0,0,0,0,0,-1.1352,-1.1355,-1.1392,-1.136,-1.1355,-1.1336,-1.1334,-1.137,-1.1336,-1.1321,-1.1315,-1.1315,-1.1311,-1.1318,-1.132,-1.1377,-1.1307,-1.131,-1.1311,-1.1312,-1.1497,-1.15,0,0,0,0,0,0,-1.1353,-1.1355,-1.136,-1.1356,-1.1352,-1.1344,-1.1367,-1.1384,-1.1307,-1.1323,-1.13,-1.1296,-1.1314,-1.1315,-1.132,-1.1377,-1.1377,-1.1307,-1.1309,-1.131,-1.1311,0,0,0,0,0,0,0,-1.1353,-1.1344,-1.1395,-1.1354,-1.135,-1.1387,-1.1387,-1.1387,-1.1307,-1.1303,-1.13,-1.1297,-1.1294,-1.1296,-1.1299,-1.1377,0,0,-1.1307,-1.1308,0,0,0,0,0,0,0,0,-1.1342,-1.1344,-1.1395,-1.1395,-1.1395,-1.1387,-1.1387,-1.1387,-1.1306,-1.1303,-1.1301,-1.1299,-1.1294,-1.1297,-1.1299,0,0,0,0,0,0,0,0,0,0,0,0,0,0,0,-1.1395,-1.1395,0,-1.1387,-1.1387,-1.1387,-1.1306,-1.1304,-1.1302,-1.13,-1.1295,-1.1297,-1.1299,0,0,0,0,0,0,0,0,0,0,0,0,0,0,0,0,0,0,0,0,0,0,0,0,0,0,0,0,0,0,0,0,0,0,0,0,0,0,0,0,0,0,0,0,0,0,0,0,0,0,0,0,0,0,0,0,0,0,0,0,0,0,0,0,0,0,0,0,0]}],[{"header":{"parameterUnit":"kt","parameterCategory":2,"dx":1,"dy":1,"la1":30.253999710083008,"la2":30.299108505249023,"lo1":-89.0895004272461,"lo2":-89.04439544677734,"nx":28,"ny":28,"refTime":"2022-09-29T21:00:00:Z","depth":0,"parameterNumber":2,"parameterNumberName":"V-component_of_WINDS"},"data":[-8.9309,-8.9441,-8.9451,-8.9605,-8.9639,-8.9746,-8.9786,-8.9838,-8.9881,-9.0006,-9.0078,-9.0097,-9.0141,-9.0226,-9.0303,-9.0308,-9.0341,-9.0382,-9.0382,-9.0192,-9.0166,-9.0141,-9.0112,-9.0389,-9.0389,-9.0579,-9.058,-9.0582,-8.9171,-8.9208,-8.9292,-8.938,-8.9452,-8.9418,-8.9483,-8.9545,-8.9639,-8.9692,-8.9764,-8.9872,-8.9957,-8.9986,-9.0068,-9.0127,-9.0114,-9.0149,-9.0145,-9.0152,-8.9949,-8.9918,-9.0158,-9.0158,-9.0158,-9.0158,-9.0158,-9.0158,-8.8924,-8.9003,-8.9062,-8.9153,-8.9199,-8.9257,-8.9332,-8.9355,-8.9435,-8.9524,-8.9516,-8.9621,-8.9673,-8.9773,-8.9807,-8.9888,-8.985,-8.9888,-8.9899,-8.9909,-8.9921,-8.965,-8.9901,-8.99,-8.99,-8.9899,-8.9899,0,-8.8747,-8.875,-8.883,-8.8915,-8.8981,-8.9045,-8.9105,-8.9151,-8.9154,-8.9219,-8.9313,-8.9368,-8.9475,-8.9562,-8.9639,-8.9666,-8.9634,-8.963,-8.9657,-8.9665,-8.9663,-8.9667,-8.9337,-8.9623,-8.962,-8.9619,-8.9617,-8.9616,-8.8499,-8.8589,-8.8653,-8.8709,-8.8744,-8.8832,-8.8886,-8.8882,-8.8938,-8.9009,-8.9076,-8.9163,-8.9234,-8.9379,-8.94,-8.9478,-8.9463,-8.9572,-8.9474,-8.9478,-8.9467,-8.9462,-8.9471,-8.9591,-8.9595,-8.9597,-8.9599,0,-8.836,-8.8373,-8.8514,-8.8567,-8.8583,-8.8676,-8.8719,-8.8795,-8.8807,-8.8913,-8.8937,-8.8955,-8.9046,-8.9049,-8.9151,-8.9149,-8.93,-8.9282,-8.9283,-8.928,-8.9379,-8.9371,-8.9697,-8.974,-8.9452,-8.9454,-8.9457,0,-8.8154,-8.8271,-8.8284,-8.8364,-8.8493,-8.8486,-8.8613,-8.8637,-8.8682,-8.8765,-8.873,-8.8807,-8.8799,-8.8877,-8.8874,-8.8997,-8.9015,-8.9022,-8.902,-8.9026,-8.9026,-8.9055,-8.9042,-8.901,-8.9009,-8.9007,-8.9006,0,-8.7935,-8.8077,-8.8208,-8.8242,-8.8309,-8.837,-8.8399,-8.8449,-8.85,-8.8566,-8.8599,-8.8676,-8.8718,-8.8777,-8.8774,-8.8708,-8.8923,-8.8831,-8.893,-8.893,-8.8978,-8.8975,-8.9263,-8.9004,-8.9003,-8.9003,-8.9002,0,-8.7771,-8.7842,-8.8029,-8.8084,-8.8121,-8.8206,-8.8283,-8.8356,-8.8411,-8.8416,-8.8467,-8.8443,-8.855,-8.8459,-8.8606,-8.8521,-8.8564,-8.8579,-8.8586,-8.8596,-8.8495,-8.8659,-8.8932,-8.8962,-8.8606,-8.8602,-8.8599,0,-8.7518,-8.7709,-8.7705,-8.7882,-8.7971,-8.7928,-8.8021,-8.807,-8.8085,-8.816,-8.8174,-8.8259,-8.8192,-8.8219,-8.8291,-8.8308,-8.8418,-8.8293,-8.84,-8.8404,-8.839,-8.8641,-8.8682,-8.8872,-8.8557,-8.8561,-8.8565,0,-8.7323,-8.7404,-8.7435,-8.7474,-8.7539,-8.7612,-8.7719,-8.7803,-8.7854,-8.7911,-8.8,-8.8118,-8.8073,-8.8116,-8.8104,-8.8179,-8.8343,-8.8119,-8.812,-8.8161,-8.8535,-8.8574,-8.8606,-8.8318,-8.8323,-8.8327,-8.8531,0,-8.7075,-8.7171,-8.7257,-8.7342,-8.7399,-8.7509,-8.7514,-8.7573,-8.7557,-8.7569,-8.7699,-8.7736,-8.7818,-8.7854,-8.7837,-8.8008,-8.7979,-8.7929,-8.7841,-8.8005,-8.8072,-8.8099,-8.7741,-8.7738,-8.7736,-8.7734,0,0,-8.683,-8.6968,-8.6959,-8.7064,-8.7111,-8.7064,-8.7181,-8.722,-8.7301,-8.7334,-8.7285,-8.7457,-8.7489,-8.7645,-8.7696,-8.7728,-8.7759,-8.77,-8.7926,-8.7948,-8.7968,-8.804,-8.8068,-8.773,-8.7729,-8.7728,-8.7728,0,-8.6741,-8.678,-8.6897,-8.6939,-8.7,-8.7008,-8.7036,-8.7086,-8.7099,-8.7225,-8.7182,-8.7259,-8.7395,-8.7436,-8.7474,-8.7682,-8.7644,-8.7706,-8.7819,-8.7904,-8.7929,-8.795,-8.8026,-8.8053,-8.7722,-8.7723,-8.7723,0,-8.6551,-8.6591,-8.6648,-8.6754,-8.6792,-8.6883,-8.6793,-8.6892,-8.6959,-8.6897,-8.7023,-8.7044,-8.7097,-8.7243,-8.7308,-8.7265,-8.7539,-8.7452,-8.7466,-8.7473,-8.7556,-8.7585,-8.7611,-8.7268,-8.7266,-8.7265,0,0,-8.6473,-8.6563,-8.6602,-8.6735,-8.6762,-8.6775,-8.6823,-8.6812,-8.6863,-8.6883,-8.6909,-8.6959,-8.7037,-8.7089,-8.7163,-8.7322,-8.7332,-8.7396,-8.7417,-8.7435,-8.7452,-8.7539,-8.7568,-8.7259,-8.7258,-8.7258,0,0,-8.6435,-8.6487,-8.6463,-8.6618,-8.667,-8.6715,-8.6795,-8.6765,-8.6832,-8.682,-8.6802,-8.6814,-8.695,-8.6972,-8.6892,-8.7131,-8.7044,-8.7063,-8.7113,-8.714,-8.7161,-8.7153,-8.6802,0,0,0,0,0,-8.6347,-8.6481,-8.6459,-8.6485,-8.6617,-8.6728,-8.6744,-8.6735,-8.6675,-8.6738,-8.6755,-8.671,-8.6926,-8.6855,-8.688,-8.6969,-8.7182,-8.7195,-8.7208,-8.731,-8.7339,-8.7362,0,0,0,0,0,0,-8.6358,-8.6391,-8.6455,-8.6506,-8.6535,-8.6723,-8.6618,-8.6619,-8.6667,-8.6658,-8.6709,-8.6712,-8.6704,-8.6841,-8.6864,-8.6949,-8.6795,-8.7187,-8.7199,-8.7209,-8.732,-8.7343,-8.7363,0,0,0,0,0,-8.6366,-8.6392,-8.6606,-8.6504,-8.653,-8.655,-8.6613,-8.6613,-8.665,-8.6676,-8.6678,-8.6639,-8.6707,-8.6725,-8.6854,-8.6939,-8.6779,-8.6787,-8.7195,-8.7204,-8.7212,-8.7331,0,0,0,0,0,0,-8.6372,-8.6392,-8.6611,-8.6618,-8.6453,-8.6539,-8.6552,-8.6608,-8.6665,-8.6668,-8.6604,-8.6596,-8.671,-8.6724,-8.6738,-8.6936,-8.6766,-8.6775,-8.678,-8.7202,-8.7209,-8.7215,0,0,0,0,0,0,-8.6378,-8.6399,-8.6614,-8.6551,-8.655,-8.6529,-8.6541,-8.6648,-8.6666,-8.6589,-8.6584,-8.66,-8.6687,-8.6724,-8.6735,-8.6902,-8.6756,-8.6764,-8.677,-8.6774,-8.7207,-8.7213,0,0,0,0,0,0,-8.6386,-8.6404,-8.6549,-8.6549,-8.6548,-8.6629,-8.6623,-8.6757,-8.6615,-8.6588,-8.6601,-8.6595,-8.6689,-8.6699,-8.6733,-8.6896,-8.6901,-8.6756,-8.6762,-8.6766,-8.6769,0,0,0,0,0,0,0,-8.6393,-8.6276,-8.6568,-8.6547,-8.6546,-8.6686,-8.6688,-8.669,-8.6613,-8.6608,-8.6603,-8.6598,-8.6708,-8.6717,-8.6727,-8.6891,0,0,-8.6755,-8.6759,0,0,0,0,0,0,0,0,-8.6268,-8.6274,-8.6568,-8.657,-8.6571,-8.6686,-8.6688,-8.6689,-8.6612,-8.6608,-8.6604,-8.66,-8.6711,-8.6718,-8.6726,0,0,0,0,0,0,0,0,0,0,0,0,0,0,0,-8.6568,-8.657,0,-8.6686,-8.6688,-8.6689,-8.6612,-8.6608,-8.6605,-8.6601,-8.6713,-8.6719,-8.6725,0,0,0,0,0,0,0,0,0,0,0,0,0,0,0,0,0,0,0,0,0,0,0,0,0,0,0,0,0,0,0,0,0,0,0,0,0,0,0,0,0,0,0,0,0,0,0,0,0,0,0,0,0,0,0,0,0,0,0,0,0,0,0,0,0,0,0,0,0]}]]]